Date,TemperatureHighF,TemperatureAvgF,TemperatureLowF,DewpointHighF,DewpointAvgF,DewpointLowF,HumidityHigh,HumidityAvg,HumidityLow,PressureMaxIn,PressureMinIn,WindSpeedMaxMPH,WindSpeedAvgMPH,GustSpeedMaxMPH,PrecipitationSumIn
2013-3-1,66.1,57.7,50.8,46.9,42.4,36.8,68,57,48,29.93,29.82,17,0,17,0.00
2013-3-2,58.9,53.6,46.5,42.8,38.4,34.2,66,56,48,29.98,29.89,20,1,20,0.00
2013-3-3,56.9,47.8,41.8,39.7,33.0,27.8,64,57,48,30.06,29.90,21,1,21,0.00
2013-3-4,65.3,52.0,40.9,38.0,33.7,28.1,71,51,31,30.13,30.04,11,0,11,0.00
2013-3-5,74.7,59.1,41.8,58.1,48.6,34.8,82,69,52,30.07,29.93,17,0,17,0.00
2013-3-6,65.6,59.0,52.5,60.9,45.3,37.6,86,62,45,30.04,29.86,21,2,21,0.00
2013-3-7,64.5,52.8,44.5,40.2,36.7,31.9,73,55,35,30.13,30.03,14,0,14,0.00
2013-3-8,73.0,56.5,43.6,50.0,43.0,37.2,85,63,35,30.13,30.03,12,0,12,0.00
2013-3-9,53.1,50.2,47.9,47.2,43.8,42.3,84,79,74,30.10,30.05,7,0,7,0.00
2013-3-10,80.3,73.6,65.0,55.2,54.1,53.1,67,51,40,30.00,29.95,6,1,0,0.00
2013-3-11,77.9,73.3,68.1,62.0,58.0,55.3,75,59,48,29.95,29.77,19,3,19,0.00
2013-3-12,69.1,63.7,57.6,64.7,57.6,50.1,90,81,70,29.95,29.74,17,1,17,0.46
2013-3-13,71.8,61.5,55.9,50.8,45.3,39.2,76,57,36,30.09,29.95,17,2,17,0.00
2013-3-14,65.2,57.6,50.4,48.7,37.1,29.3,71,48,29,30.19,30.08,17,1,17,0.00
2013-3-15,73.2,56.3,42.2,44.8,39.6,35.1,80,57,27,30.19,30.07,13,0,13,0.00
2013-3-16,78.1,61.0,47.6,55.5,47.9,42.1,87,65,32,30.09,29.98,12,0,12,0.00
2013-3-17,75.3,63.6,52.6,60.3,54.6,47.1,88,74,55,30.03,29.89,13,1,13,0.01
2013-3-18,75.1,67.6,59.3,66.3,61.0,54.1,85,80,72,29.93,29.76,22,1,22,0.00
2013-3-19,83.8,69.8,62.0,69.2,62.0,58.4,90,77,55,29.90,29.79,14,0,14,0.01
2013-3-20,71.8,65.4,57.6,65.4,60.6,54.1,89,85,77,29.88,29.72,14,1,14,0.30
2013-3-21,68.9,58.2,48.8,54.6,44.1,36.5,90,63,32,29.90,29.79,16,1,16,0.01
2013-3-22,77.0,61.1,46.2,62.1,49.0,38.6,85,67,41,29.90,29.79,10,0,10,0.99
2013-3-23,83.4,72.0,64.5,75.0,67.1,59.9,92,85,71,29.87,29.69,22,1,22,0.00
2013-3-24,79.9,73.3,67.9,73.9,69.1,64.1,92,87,80,29.72,29.55,22,2,22,0.00
2013-3-25,67.9,61.9,56.3,64.2,49.2,39.3,89,64,43,29.95,29.65,27,2,27,0.00
2013-3-26,59.3,54.6,47.4,43.6,36.8,33.6,60,51,42,30.16,29.95,22,2,22,0.00
2013-3-27,60.2,50.4,42.3,38.3,34.4,29.4,70,55,42,30.24,30.13,16,1,16,0.00
2013-3-28,70.4,54.9,42.5,44.8,37.6,31.3,80,56,27,30.21,30.11,12,0,12,0.00
2013-3-29,77.7,59.8,46.0,50.0,43.7,37.5,80,59,25,30.23,30.11,13,0,13,0.00
2013-3-30,78.3,62.2,47.0,58.0,49.4,41.1,83,65,31,30.16,30.04,17,1,17,0.00
2013-3-31,80.5,66.8,53.9,60.7,54.7,48.6,88,67,35,30.06,29.90,16,1,16,0.00